Torna al catalogo

DELTA 1 DEB

AttivoSSO
NORAD 7147·DEBRIS·🇺🇸 United States

Lanciato Nov 6, 1973 da Vandenberg Space Force Base

Loading…

Prossimi Passaggi (prossime 24 ore)

TLE

AggiornatoSource: Space-Track

Epoca: Sep 14, 2026, 14:29 UTC

1 07147U 73086DM  26257.60404527  .00000013  00000-0  47077-3 0  9995
2 07147 102.2130 202.8230 0054884 163.4046  11.1082 12.33143302378058

Traccia DELTA 1 DEB in tempo reale con AllMySat

Download on the App Store